Weather in Goiânia

Brazil     16°41′08″S   49°15′37″W
temp.,
°C
wind,
m/s
gust,
m/s
humid.,
%
clouds,
%
prec.,
mm/h
press.,
hPa
HPBL,
m
3 august, tue
tue300:00+19ese244728 0.0 1021117
03:00+18e125228 0.0 101981
06:00+17se1256100 0.0 102068
09:00+21ese2343100 0.0 1022322
12:00+27se2230100 0.0 10201402
15:00+29s232449 0.0 10162389
18:00+26s353095 0.0 1017415
21:00+22s26362 0.0 1019178
4 august, wed
wed400:00+20s38405 0.0 1020226
03:00+18se37455 0.0 1019220
06:00+17se254830 0.0 1020149
09:00+22ese353417 0.0 1021354
12:00+29e22226 0.0 10202235
15:00+31sse1117100 0.0 10162777
18:00+26se222252 0.0 101760
21:00+23se232993 0.0 102095
5 august, thu
thu500:00+20sse133998 0.0 1021171
03:00+19ese24476 0.0 1020147
06:00+18e4104893 0.0 1021359
09:00+22ene611385 0.0 1022665
12:00+28ene55250 0.0 10201684
15:00+30e32210 0.0 10172848
18:00+26ese3626100 0.0 1018410
21:00+22ese5133362 0.0 1021494
6 august, fri
fri600:00+21e3937100 0.0 1021428
03:00+19e41238100 0.0 1020517
06:00+18ene51352100 0.0 1022526
09:00+20ene61053100 0.0 1024626
12:00+27ene6631100 0.0 10211665
15:00+29e4425100 0.0 10182495
18:00+25e473187 0.0 1018712
21:00+23e5113898 0.0 1020660
7 august, sat
sat700:00+22e51242100 0.0 1020641
03:00+20e41245100 0.0 1019625
06:00+18e5125478 0.0 1021625
09:00+20ene6105099 0.0 1022738
12:00+26ene5531100 0.0 10201633
15:00+29ene332528 0.0 10162469
18:00+25e363136 0.0 1017463
21:00+22ene410390 0.0 1020492